Radiation Dose at Monitoring Post of Fukushima Daini Nuclear Power Station
Date,Time,MP-1(microSv/h),MP-2(microSv/h),MP-3(microSv/h),MP-4(microSv/h),MP-5(microSv/h),MP-6(microSv/h),MP-7(microSv/h),Wind Direction,Wind Velocity(m/s),Rain
2016/06/13,00:00,0.430,0.250,0.449,0.410,0.376,0.205,0.179,south-southwest,9.4,No
2016/06/13,00:10,0.427,0.252,0.445,0.405,0.379,0.206,0.180,south,8.8,No
2016/06/13,00:20,0.429,0.253,0.448,0.407,0.378,0.205,0.180,south-southwest,10.1,No
2016/06/13,00:30,0.427,0.250,0.449,0.407,0.376,0.205,0.179,south,8.9,No
2016/06/13,00:40,0.428,0.252,0.445,0.405,0.379,0.204,0.180,south,8.9,No
2016/06/13,00:50,0.430,0.251,0.449,0.410,0.376,0.205,0.179,south,8.4,No
2016/06/13,01:00,0.426,0.252,0.447,0.407,0.379,0.206,0.181,south,8.7,No
2016/06/13,01:10,0.430,0.251,0.445,0.405,0.379,0.204,0.180,south,8.9,No
2016/06/13,01:20,0.429,0.252,0.451,0.409,0.377,0.206,0.180,south,8.8,No
2016/06/13,01:30,0.427,0.252,0.447,0.405,0.380,0.205,0.180,south,9.4,No
2016/06/13,01:40,0.430,0.251,0.447,0.407,0.376,0.205,0.180,south,9.5,No
2016/06/13,01:50,0.427,0.252,0.449,0.407,0.380,0.205,0.180,south,9.0,Yes
2016/06/13,02:00,0.431,0.252,0.444,0.406,0.379,0.204,0.179,south,8.8,Yes
2016/06/13,02:10,0.429,0.252,0.449,0.408,0.377,0.206,0.181,south,8.1,Yes
2016/06/13,02:20,0.427,0.253,0.448,0.404,0.380,0.205,0.180,south,8.4,Yes
2016/06/13,02:30,0.432,0.251,0.448,0.409,0.375,0.205,0.180,south,8.6,Yes
2016/06/13,02:40,0.430,0.253,0.449,0.408,0.382,0.206,0.181,south,8.3,Yes
2016/06/13,02:50,0.434,0.253,0.445,0.406,0.378,0.206,0.179,south,8.2,Yes
2016/06/13,03:00,0.431,0.254,0.450,0.410,0.379,0.207,0.182,south,8.5,Yes
2016/06/13,03:10,0.431,0.254,0.448,0.407,0.378,0.208,0.181,south,8.6,Yes
2016/06/13,03:20,0.432,0.253,0.449,0.410,0.379,0.207,0.182,south,8.7,Yes
2016/06/13,03:30,0.429,0.254,0.451,0.407,0.379,0.208,0.182,south,10.0,Yes
2016/06/13,03:40,0.432,0.252,0.447,0.409,0.377,0.206,0.181,south,10.1,Yes
2016/06/13,03:50,0.428,0.254,0.449,0.407,0.381,0.208,0.182,south,10.0,Yes
2016/06/13,04:00,0.430,0.254,0.444,0.406,0.377,0.207,0.182,south,10.1,Yes
2016/06/13,04:10,0.425,0.253,0.448,0.406,0.380,0.206,0.181,south,9.5,Yes
2016/06/13,04:20,0.428,0.254,0.444,0.403,0.374,0.206,0.180,south,10.7,Yes
2016/06/13,04:30,0.427,0.252,0.444,0.405,0.377,0.206,0.181,south,11.3,Yes
2016/06/13,04:40,0.427,0.252,0.443,0.401,0.373,0.207,0.179,south,11.0,Yes
2016/06/13,04:50,0.424,0.251,0.443,0.404,0.376,0.205,0.180,south,9.8,Yes
2016/06/13,05:00,0.424,0.250,0.440,0.399,0.372,0.204,0.179,south-southwest,8.9,Yes
2016/06/13,05:10,0.421,0.249,0.439,0.399,0.374,0.204,0.177,south-southwest,7.5,Yes
2016/06/13,05:20,0.421,0.249,0.437,0.395,0.371,0.205,0.178,south-southwest,7.3,Yes
2016/06/13,05:30,0.420,0.249,0.436,0.399,0.374,0.202,0.176,south-southwest,7.0,Yes
2016/06/13,05:40,0.420,0.249,0.435,0.395,0.373,0.204,0.177,south-southwest,8.4,Yes
2016/06/13,05:50,0.419,0.248,0.436,0.397,0.374,0.201,0.176,south-southwest,8.6,Yes
2016/06/13,06:00,0.419,0.248,0.433,0.394,0.372,0.203,0.176,south-southwest,7.7,Yes
2016/06/13,06:10,0.417,0.248,0.433,0.399,0.374,0.202,0.177,south-southwest,7.8,Yes
2016/06/13,06:20,0.418,0.248,0.431,0.394,0.371,0.203,0.175,south-southwest,7.7,Yes
2016/06/13,06:30,0.417,0.246,0.432,0.395,0.372,0.202,0.174,south-southwest,6.6,Yes
2016/06/13,06:40,0.419,0.248,0.431,0.392,0.372,0.203,0.176,south-southwest,5.7,Yes
2016/06/13,06:50,0.417,0.248,0.432,0.394,0.370,0.201,0.175,south-southwest,4.8,Yes
2016/06/13,07:00,0.418,0.248,0.430,0.394,0.370,0.203,0.175,south-southwest,5.6,Yes
2016/06/13,07:10,0.418,0.246,0.432,0.394,0.372,0.203,0.175,south,4.5,Yes
2016/06/13,07:20,0.418,0.248,0.429,0.391,0.371,0.202,0.176,south,4.6,Yes
2016/06/13,07:30,0.416,0.246,0.432,0.394,0.371,0.202,0.175,south-southwest,3.8,Yes
2016/06/13,07:40,0.416,0.247,0.427,0.389,0.369,0.202,0.173,southwest,3.9,Yes
2016/06/13,07:50,0.415,0.245,0.430,0.390,0.370,0.200,0.174,south-southwest,3.5,Yes
2016/06/13,08:00,0.413,0.246,0.424,0.386,0.367,0.200,0.173,south-southwest,5.2,Yes
2016/06/13,08:10,0.411,0.244,0.426,0.387,0.367,0.199,0.173,south,4.8,Yes
2016/06/13,08:20,0.412,0.245,0.422,0.384,0.368,0.198,0.174,south,6.7,Yes
2016/06/13,08:30,0.410,0.244,0.424,0.385,0.366,0.199,0.173,south,7.8,Yes
2016/06/13,08:40,0.410,0.244,0.422,0.384,0.368,0.198,0.173,south,7.0,Yes
2016/06/13,08:50,0.411,0.244,0.425,0.385,0.369,0.198,0.172,south,7.0,Yes
2016/06/13,09:00,0.410,0.244,0.422,0.385,0.367,0.197,0.173,south-southwest,6.1,Yes
2016/06/13,09:10,0.409,0.242,0.423,0.385,0.368,0.197,0.171,south-southeast,7.3,Yes
2016/06/13,09:20,0.409,0.244,0.422,0.384,0.369,0.196,0.172,south,7.1,Yes
2016/06/13,09:30,0.409,0.243,0.423,0.383,0.367,0.197,0.173,south,5.9,Yes
2016/06/13,09:40,0.407,0.243,0.421,0.383,0.368,0.197,0.172,south,6.1,Yes
2016/06/13,09:50,0.409,0.241,0.421,0.383,0.368,0.198,0.172,south-southeast,5.0,Yes
2016/06/13,10:00,0.408,0.244,0.421,0.383,0.368,0.197,0.173,south-southeast,3.4,Yes
2016/06/13,10:10,0.410,0.242,0.422,0.383,0.367,0.198,0.172,south,2.5,Yes
2016/06/13,10:20,0.408,0.244,0.422,0.386,0.367,0.199,0.173,south-southwest,1.4,Yes
2016/06/13,10:30,0.410,0.243,0.421,0.383,0.369,0.197,0.172,-,CALM,Yes
2016/06/13,10:40,0.406,0.244,0.422,0.383,0.367,0.198,0.174,north-northeast,1.0,Yes
2016/06/13,10:50,0.408,0.243,0.420,0.381,0.369,0.197,0.172,north,2.8,Yes
2016/06/13,11:00,0.406,0.243,0.423,0.385,0.368,0.198,0.174,north-northeast,2.0,Yes
2016/06/13,11:10,0.409,0.244,0.419,0.382,0.369,0.199,0.172,north,3.6,Yes
2016/06/13,11:20,0.407,0.243,0.425,0.387,0.368,0.198,0.172,north-northwest,2.7,Yes
2016/06/13,11:30,0.407,0.243,0.419,0.381,0.368,0.199,0.172,north-northeast,4.0,Yes
2016/06/13,11:40,0.407,0.242,0.423,0.384,0.368,0.196,0.173,north-northeast,4.1,Yes
2016/06/13,11:50,0.409,0.244,0.423,0.382,0.369,0.198,0.173,north-northeast,5.3,Yes
2016/06/13,12:00,0.406,0.244,0.422,0.383,0.368,0.198,0.173,north-northeast,7.5,Yes
2016/06/13,12:10,0.405,0.245,0.421,0.381,0.367,0.199,0.173,north-northeast,7.0,Yes
2016/06/13,12:20,0.403,0.244,0.419,0.379,0.368,0.198,0.172,north,8.7,Yes
2016/06/13,12:30,0.406,0.244,0.421,0.382,0.368,0.198,0.173,north,8.1,Yes
2016/06/13,12:40,0.400,0.244,0.417,0.377,0.367,0.198,0.173,north-northeast,9.3,Yes
2016/06/13,12:50,0.404,0.245,0.419,0.379,0.370,0.197,0.174,north-northeast,10.3,Yes
2016/06/13,13:00,0.401,0.246,0.418,0.377,0.368,0.199,0.175,north-northeast,8.6,Yes
2016/06/13,13:10,0.403,0.249,0.423,0.383,0.371,0.200,0.178,northeast,9.3,Yes
2016/06/13,13:20,0.403,0.248,0.421,0.381,0.371,0.203,0.178,northeast,7.8,Yes
2016/06/13,13:30,0.408,0.250,0.424,0.383,0.374,0.203,0.180,northeast,8.1,Yes
2016/06/13,13:40,0.405,0.249,0.423,0.383,0.373,0.204,0.181,east-northeast,8.9,Yes
2016/06/13,13:50,0.411,0.252,0.425,0.387,0.377,0.205,0.181,east-northeast,10.2,Yes
2016/06/13,14:00,0.407,0.251,0.425,0.386,0.374,0.204,0.181,east-northeast,9.5,Yes
2016/06/13,14:10,0.410,0.251,0.427,0.390,0.378,0.203,0.179,east-northeast,10.4,Yes
2016/06/13,14:20,0.406,0.249,0.426,0.385,0.373,0.203,0.178,east-northeast,10.4,Yes
2016/06/13,14:30,0.407,0.248,0.427,0.389,0.376,0.202,0.177,east-northeast,9.5,Yes
2016/06/13,14:40,0.405,0.247,0.425,0.387,0.371,0.201,0.176,east-northeast,9.9,Yes
2016/06/13,14:50,0.406,0.246,0.427,0.389,0.373,0.199,0.176,east,10.1,Yes
2016/06/13,15:00,0.404,0.247,0.421,0.385,0.370,0.199,0.175,east,10.1,Yes
2016/06/13,15:10,0.405,0.246,0.425,0.388,0.373,0.200,0.173,east,10.8,Yes
2016/06/13,15:20,0.404,0.245,0.422,0.384,0.370,0.199,0.174,east,10.8,Yes
2016/06/13,15:30,0.404,0.245,0.425,0.385,0.373,0.199,0.173,east-northeast,9.1,Yes
2016/06/13,15:40,0.403,0.244,0.422,0.383,0.368,0.197,0.173,east-northeast,10.6,Yes
2016/06/13,15:50,0.407,0.245,0.426,0.385,0.372,0.198,0.173,east-northeast,10.7,Yes
2016/06/13,16:00,0.403,0.245,0.421,0.383,0.367,0.198,0.175,east-northeast,10.7,Yes
2016/06/13,16:10,0.403,0.245,0.423,0.386,0.374,0.198,0.173,east-northeast,10.8,Yes
2016/06/13,16:20,0.403,0.244,0.420,0.383,0.368,0.196,0.173,east-northeast,9.2,Yes
2016/06/13,16:30,0.403,0.244,0.423,0.385,0.372,0.197,0.172,east-northeast,10.4,Yes
2016/06/13,16:40,0.404,0.244,0.421,0.383,0.369,0.196,0.173,east-northeast,10.9,Yes
2016/06/13,16:50,0.404,0.243,0.423,0.385,0.370,0.196,0.172,northeast,10.7,Yes
2016/06/13,17:00,0.406,0.243,0.421,0.382,0.368,0.197,0.171,northeast,9.5,Yes
2016/06/13,17:10,0.403,0.242,0.423,0.384,0.370,0.195,0.171,northeast,9.4,Yes
2016/06/13,17:20,0.406,0.243,0.419,0.383,0.370,0.197,0.171,northeast,8.4,Yes
2016/06/13,17:30,0.403,0.243,0.424,0.385,0.370,0.197,0.172,northeast,8.7,Yes
2016/06/13,17:40,0.407,0.243,0.420,0.382,0.370,0.196,0.170,north-northeast,9.0,Yes
2016/06/13,17:50,0.405,0.243,0.423,0.384,0.369,0.196,0.173,northeast,7.7,Yes
2016/06/13,18:00,0.406,0.244,0.421,0.383,0.370,0.198,0.171,north-northeast,8.7,Yes
2016/06/13,18:10,0.405,0.243,0.423,0.385,0.371,0.196,0.170,northeast,8.1,Yes
2016/06/13,18:20,0.405,0.242,0.419,0.384,0.369,0.197,0.171,north-northeast,7.5,Yes
2016/06/13,18:30,0.404,0.242,0.423,0.385,0.369,0.196,0.171,north-northeast,7.9,Yes
2016/06/13,18:40,0.406,0.243,0.422,0.385,0.370,0.196,0.170,north-northeast,7.5,No
2016/06/13,18:50,0.404,0.241,0.423,0.385,0.367,0.196,0.170,northeast,8.4,No
2016/06/13,19:00,0.406,0.243,0.419,0.383,0.368,0.195,0.170,north-northeast,9.2,No
2016/06/13,19:10,0.405,0.240,0.423,0.384,0.366,0.194,0.169,north-northeast,8.7,No
2016/06/13,19:20,0.405,0.241,0.421,0.382,0.368,0.195,0.168,north-northeast,9.6,No
2016/06/13,19:30,0.404,0.240,0.421,0.383,0.367,0.194,0.169,north,9.2,No
2016/06/13,19:40,0.406,0.240,0.419,0.383,0.370,0.194,0.167,north,9.0,No
2016/06/13,19:50,0.405,0.239,0.424,0.382,0.365,0.195,0.167,north,8.9,No
2016/06/13,20:00,0.405,0.241,0.419,0.382,0.368,0.194,0.168,north-northeast,9.3,No
2016/06/13,20:10,0.403,0.240,0.423,0.383,0.366,0.194,0.168,north,9.8,No
2016/06/13,20:20,0.405,0.241,0.420,0.383,0.368,0.194,0.167,north,11.3,No
2016/06/13,20:30,0.405,0.240,0.422,0.384,0.366,0.194,0.168,north,10.8,No
2016/06/13,20:40,0.404,0.241,0.420,0.383,0.369,0.194,0.167,north,11.0,Yes
2016/06/13,20:50,0.404,0.240,0.423,0.384,0.366,0.196,0.169,north,11.2,Yes
2016/06/13,21:00,0.406,0.242,0.420,0.385,0.369,0.195,0.169,north,11.5,Yes
2016/06/13,21:10,0.407,0.240,0.424,0.384,0.366,0.197,0.170,north,11.9,Yes
2016/06/13,21:20,0.406,0.243,0.422,0.384,0.370,0.195,0.169,north,11.3,Yes
2016/06/13,21:30,0.407,0.243,0.425,0.384,0.368,0.198,0.171,north,10.3,Yes
2016/06/13,21:40,0.407,0.243,0.421,0.384,0.369,0.196,0.171,north,11.1,Yes
2016/06/13,21:50,0.408,0.242,0.424,0.385,0.369,0.197,0.170,north,10.1,Yes
2016/06/13,22:00,0.405,0.242,0.420,0.383,0.370,0.196,0.171,north,12.0,Yes
2016/06/13,22:10,0.407,0.242,0.424,0.385,0.369,0.197,0.170,north,11.1,Yes
2016/06/13,22:20,0.403,0.243,0.421,0.384,0.369,0.196,0.171,north,12.3,Yes
2016/06/13,22:30,0.407,0.241,0.423,0.385,0.368,0.196,0.170,north,12.4,Yes
2016/06/13,22:40,0.405,0.243,0.421,0.384,0.368,0.195,0.169,north,12.8,Yes
2016/06/13,22:50,0.408,0.241,0.424,0.385,0.366,0.196,0.169,north,11.8,Yes
2016/06/13,23:00,0.403,0.243,0.419,0.383,0.365,0.196,0.169,north,11.9,No
2016/06/13,23:10,0.407,0.241,0.421,0.382,0.368,0.195,0.169,north,11.3,Yes
2016/06/13,23:20,0.403,0.242,0.420,0.383,0.368,0.196,0.168,north,12.4,Yes
2016/06/13,23:30,0.406,0.242,0.423,0.383,0.367,0.194,0.167,north,13.6,Yes
2016/06/13,23:40,0.404,0.242,0.420,0.384,0.366,0.195,0.168,north,13.8,Yes
2016/06/13,23:50,0.407,0.239,0.421,0.383,0.368,0.195,0.168,north,14.7,No
